GW2967 Weather Reports


Display with metric or nautical units.
time (UTC)temp
F
wind
direction
speed
MPH
gust
MPH
rain 1hr
in
rain 24hr
in
rain mn
in
humidity
%
barometer
mb
20260502123028 45 106 3.0 10.0 0.00 0.29 0.24 60 1013.0
20260502121538 45 144 1.0 9.0 0.00 0.29 0.24 64 1012.8
20260502114528 43 180 1.0 4.0 0.00 0.29 0.24 66 1012.7
20260502113030 41 195 0.0 2.0 0.00 0.29 0.24 67 1012.9
20260502111532 40 242 0.0 2.0 0.00 0.29 0.24 68 1013.1
20260502110035 40 0 0.0 1.0 0.00 0.29 0.24 69 1012.9
20260502104528 40 0 0.0 2.0 0.00 0.29 0.24 70 1012.8
20260502103029 40 121 1.0 9.0 0.00 0.29 0.24 68 1012.3
20260502101530 41 33 1.0 13.0 0.00 0.29 0.24 67 1012.3
20260502091530 44 0 0.0 0.0 0.01 0.29 0.24 70 1011.4
20260502071530 45 0 0.0 0.0 0.04 0.28 0.23 67 1011.2
20260502070027 45 0 0.0 0.0 0.07 0.28 0.23 67 1011.1
20260502064531 45 0 0.0 0.0 0.10 0.28 0.23 67 1011.3
20260502063031 45 0 0.0 0.0 0.12 0.27 0.22 67 1011.3
20260502061530 45 0 0.0 0.0 0.11 0.24 0.19 67 1011.8
20260502060027 46 0 0.0 0.0 0.09 0.21 0.16 67 1012.0
20260502054536 46 0 0.0 0.0 0.09 0.18 0.13 66 1012.0
20260502053035 46 0 0.0 0.0 0.09 0.15 0.10 68 1012.2
20260502051530 46 0 0.0 0.0 0.07 0.13 0.08 68 1012.1
20260502050030 46 0 0.0 0.0 0.07 0.12 0.07 68 1012.4
20260502044528 47 0 0.0 0.0 0.05 0.09 0.04 68 1012.4
20260502043027 47 244 0.0 1.0 0.03 0.06 0.01 68 1012.3
20260502041529 47 152 0.0 0.0 0.04 0.06 0.01 67 1011.9
20260502040028 47 118 0.0 5.0 0.03 0.05 0.00 67 1011.8
20260502034528 47 0 0.0 0.0 0.03 0.04 0.04 68 1011.6
20260502033040 47 0 0.0 1.0 0.01 0.02 0.02 68 1011.6
20260502031530 47 0 0.0 0.0 0.01 0.02 0.02 70 1011.6
20260502030028 47 0 0.0 0.0 0.01 0.02 0.02 70 1011.5
20260502024532 47 0 0.0 0.0 0.00 0.01 0.01 70 1011.5
20260502023030 47 0 0.0 1.0 0.00 0.01 0.01 70 1011.6
20260502021528 47 0 0.0 0.0 0.01 0.01 0.01 70 1011.7
20260502020030 48 0 0.0 0.0 0.01 0.01 0.01 71 1011.7
20260502014529 48 0 0.0 0.0 0.01 0.05 0.01 69 1011.7
20260502013027 49 0 0.0 1.0 0.01 0.05 0.01 68 1011.5
20260502011530 49 0 0.0 0.0 0.00 0.04 0.00 66 1011.5
20260502010030 50 0 0.0 1.0 0.00 0.04 0.00 64 1011.4
20260502004549 51 237 0.0 1.0 0.00 0.08 0.00 60 1011.7
20260502003028 51 0 0.0 1.0 0.00 0.08 0.00 59 1011.3
20260502001528 52 93 0.0 1.0 0.00 0.08 0.00 57 1011.1
20260502000046 52 0 0.0 2.0 0.00 0.08 0.00 56 1011.0
20260501234532 53 0 0.0 3.0 0.00 0.12 0.00 52 1011.0
20260501233028 54 0 0.0 15.0 0.00 0.12 0.00 49 1010.7
20260501231538 56 229 1.0 9.0 0.00 0.12 0.00 45 1010.3
20260501230027 56 0 0.0 0.0 0.00 0.12 0.00 40 1009.9
20260501224527 57 0 0.0 0.0 0.00 0.17 0.00 39 1009.7
20260501223029 58 0 0.0 0.0 0.00 0.17 0.00 37 1009.8
20260501221528 58 0 0.0 2.0 0.00 0.17 0.00 40 1010.1
20260501220028 58 238 0.0 2.0 0.00 0.17 0.00 38 1010.0
20260501214530 58 221 0.0 2.0 0.00 0.17 0.00 39 1009.9
20260501213029 59 0 0.0 2.0 0.00 0.17 0.00 38 1009.8
20260501211529 60 0 0.0 2.0 0.00 0.17 0.00 38 1009.8
20260501210028 60 164 1.0 3.0 0.00 0.17 0.00 35 1009.6
20260501204530 61 204 1.0 4.0 0.00 0.17 0.00 34 1009.6
20260501203028 60 0 0.0 2.0 0.00 0.17 0.00 32 1009.7
20260501201530 61 0 0.0 3.0 0.00 0.17 0.00 33 1009.8
20260501200029 63 0 0.0 4.0 0.00 0.17 0.00 31 1009.8
20260501194530 63 79 0.0 4.0 0.00 0.17 0.00 29 1009.9
20260501193029 63 211 1.0 4.0 0.00 0.17 0.00 31 1010.0
20260501191529 63 110 3.0 9.0 0.00 0.17 0.00 26 1010.1
20260501190028 64 49 1.0 6.0 0.00 0.17 0.00 28 1010.2
20260501184531 65 152 1.0 7.0 0.00 0.17 0.00 26 1010.4
20260501183028 65 260 1.0 4.0 0.00 0.17 0.00 33 1010.5
20260501181531 64 277 1.0 6.0 0.00 0.17 0.00 28 1010.7
20260501180037 64 233 0.0 9.0 0.00 0.17 0.00 33 1010.7
20260501174530 62 227 1.0 5.0 0.00 0.17 0.00 28 1010.8
20260501173030 62 240 1.0 4.0 0.00 0.17 0.00 35 1010.9
20260501171528 62 196 1.0 3.0 0.00 0.17 0.00 29 1011.2
20260501170028 61 91 2.0 7.0 0.00 0.17 0.00 29 1011.3
20260501164541 60 91 2.0 7.0 0.00 0.17 0.00 32 1011.5
20260501163027 61 249 1.0 3.0 0.00 0.17 0.00 33 1011.9
20260501161528 59 136 1.0 5.0 0.00 0.17 0.00 32 1012.0
20260501160030 59 127 0.0 3.0 0.00 0.17 0.00 33 1012.1
20260501154555 58 198 1.0 6.0 0.00 0.17 0.00 35 1012.4
20260501153043 57 179 1.0 8.0 0.00 0.17 0.00 32 1012.8
20260501151529 56 106 1.0 7.0 0.00 0.17 0.00 34 1012.9
20260501150027 56 154 0.0 3.0 0.00 0.17 0.00 40 1013.1
20260501144530 55 112 2.0 11.0 0.00 0.17 0.00 40 1013.1
20260501143031 54 281 1.0 4.0 0.00 0.17 0.00 46 1013.1
20260501141528 54 11 1.0 7.0 0.00 0.17 0.00 51 1013.1